Location: Unspecified
(0.0000°N, 0.0000°E)
Time: 07:26:21
(UTC+00:00)

Oscar 14 - Visible Passes

Search period start: 10 June 2023 00:00
Search period end: 20 June 2023 00:00
Orbit: 776 x 790 km, 98.9° (Epoch: 09 June)

Date Brightness Start Highest point End Pass type
(mag) Time Alt. Az. Time Alt. Az. Time Alt. Az.
10 Jun ? 04:47:20 10° E 04:49:05 12° ESE 04:50:50 10° ESE visible
10 Jun ? 18:58:46 10° SW 19:01:51 16° WSW 19:04:56 10° WNW visible
11 Jun ? 18:25:37 10° S 18:30:24 38° WSW 18:35:11 10° NW visible
12 Jun ? 05:20:34 10° NE 05:25:08 33° ESE 05:29:42 10° SSE visible
13 Jun ? 04:51:18 10° ENE 04:53:41 13° ESE 04:56:05 10° SE visible
13 Jun ? 19:03:48 10° SW 19:06:27 14° WSW 19:09:06 10° WNW visible
14 Jun ? 18:30:21 10° SSW 18:35:00 34° WSW 18:39:40 10° NW visible
15 Jun ? 05:25:03 10° NE 05:29:45 36° ESE 05:34:26 10° S visible
16 Jun ? 04:55:25 10° ENE 04:58:17 15° ESE 05:01:09 10° SE visible
16 Jun ? 19:08:57 10° SW 19:11:03 12° WSW 19:13:10 10° W visible
17 Jun ? 18:35:06 10° SSW 18:39:37 31° WSW 18:44:08 10° NW visible
18 Jun ? 05:29:32 10° NNE 05:34:20 41° ESE 05:39:09 10° S visible
19 Jun ? 04:59:38 10° ENE 05:02:53 17° ESE 05:06:07 10° SE visible
19 Jun ? 19:14:21 10° WSW 19:15:39 11° WSW 19:16:57 10° W visible
